Location: Fort Collins
(40.5850°N, 105.0840°W)
Time: 20:37:42
(UTC-06:00)

Cosmos 2297 Rocket - Visible Passes

Search period start: 22 June 2018 00:00
Search period end: 02 July 2018 00:00
Orbit: 840 x 842 km, 71.0° (Epoch: 22 June)

Date Brightness Start Highest point End Pass type
(mag) Time Alt. Az. Time Alt. Az. Time Alt. Az.
22 Jun 3.6 03:26:04 10° N 03:31:21 39° ENE 03:36:34 10° SE visible
23 Jun 3.7 03:11:00 10° N 03:16:13 37° ENE 03:21:24 10° SE visible
23 Jun 3.0 04:55:14 10° NW 05:00:07 31° WSW 05:05:00 10° SSW visible
24 Jun 3.7 02:55:56 10° N 03:01:06 35° ENE 03:06:13 10° SE visible
24 Jun 2.9 04:40:05 10° NW 04:45:03 33° WSW 04:50:00 10° SSW visible
25 Jun 3.8 02:40:52 10° N 02:45:58 33° ENE 02:51:02 10° ESE visible
25 Jun 2.8 04:24:55 10° NW 04:29:59 35° WSW 04:35:00 10° SSW visible
26 Jun 3.8 02:25:49 10° N 02:30:51 32° ENE 02:35:50 10° ESE visible
26 Jun 2.8 04:09:46 10° NW 04:14:53 37° WSW 04:19:59 10° S visible
27 Jun 3.9 02:10:46 10° N 02:15:43 30° ENE 02:20:38 10° ESE visible
27 Jun 2.7 03:54:37 10° NW 03:59:48 39° WSW 04:04:04 15° SSW visible
28 Jun 3.9 01:55:42 10° N 02:00:35 29° NE 02:05:26 10° ESE visible
28 Jun 2.6 03:39:28 10° NW 03:44:44 41° WSW 03:47:54 22° SSW visible
29 Jun 3.9 01:40:39 10° N 01:45:27 28° NE 01:50:13 10° ESE visible
29 Jun 2.6 03:24:20 10° NW 03:29:39 43° WSW 03:31:59 29° SSW visible
30 Jun 4.0 01:25:37 10° N 01:30:19 26° NE 01:34:31 12° ESE visible
30 Jun 2.5 03:09:12 10° NW 03:14:34 46° WSW 03:16:15 35° SSW visible
01 Jul 4.0 01:10:34 10° N 01:15:11 25° NE 01:18:55 14° ESE visible
01 Jul 2.4 02:54:04 10° NW 02:59:28 49° WSW 03:00:40 42° SW visible
